Terminal Aerodrome Forecast
Issued by NWS

Home | Current Version | Previous Version | Text Only | Print | Product List | Glossary Off
Versions: 1 2 3 4 5 6 7 8 9 10 11 12 13 14 15 16 17

000
FTUS42 KMHX 280527
TAFOAJ
TAF
KOAJ 280527Z 2806/2906 22009KT P6SM SCT035 BKN120
     FM281100 26010KT P6SM SCT040
     FM282300 22003KT P6SM SKC
      AMD LTD TO CLD VIS AND WIND=

USA.gov is the U.S. government's official web portal to all federal, state and local government web resources and services.